Duluth, MN

4:05 AM CDT on July 28, 2017 (GMT -0500)
Duluth International

Weather History for KDLH - November, 2013

Change the Weather History Date:

Wednesday, November 13, 2013

  Actual Average Record
Temperature  
Mean Temperature 33 °F 30 °F  
Max Temperature 46 °F 37 °F 67 °F (1999)
Min Temperature 20 °F 23 °F -7 °F (1986)
Degree Days  
Heating Degree Days 32 35  
Month to date heating degree days 436 413  
Since 1 July heating degree days 1288 1538  
Cooling Degree Days 0 0  
Month to date cooling degree days 0 0  
Year to date cooling degree days 375 204  
Moisture  
Dew Point 21 °F    
Average Humidity 59    
Maximum Humidity 73    
Minimum Humidity 45    
Precipitation  
Precipitation 0.00 in 0.07 in 0.93 in (1951)
Month to date precipitation 0.41 0.97  
Year to date precipitation 27.19 28.63  
Snow  
Snow 0.00 in 0.50 in 7.10 in (2010)
Month to date snowfall 1.1 4.4  
Since 1 July snowfall 1.4 6.8  
Since 1 September snowfall 1.4 6.8  
Snow Depth T in    
Sea Level Pressure  
Sea Level Pressure 29.96 in    
Wind  
Wind Speed 14 mph (WSW)    
Max Wind Speed 26 mph    
Max Gust Speed 33 mph    
Visibility 10 miles    
Events      
T = Trace of Precipitation, MM = Missing Value Source: NWS Daily Summary

Daily Weather History Graph

Daily Weather History Graph

Search for Another Location

Airport or City:

Trip Planner

Search our weather history database for the weather conditions in past years. The results will help you decide how hot, cold, wet, or windy it might be!

Date:

Astronomy

Nov. 13, 2013 Rise Set
Actual Time 7:09 AM CST 4:36 PM CST
Civil Twilight 6:36 AM CST 5:09 PM CST
Nautical Twilight 5:59 AM CST 5:46 PM CST
Astronomical Twilight 5:23 AM CST 6:21 PM CST
Moon 2:36 PM CST (11/13) 2:48 AM CST (11/13)
Length of Visible Light 10h 33m
Length of Day
9h 27m
Waxing Gibbous, 85% of the Moon is Illuminated
Nov 13
Waxing Gibbous
Nov 17
Full
Nov 25
Last Quarter
Dec 2
New
Dec 9
First Quarter

Hourly Weather History & Observations

Time (CST) Temp. Windchill Dew Point Humidity Pressure Visibility Wind Dir Wind Speed Gust Speed Precip Events Conditions
12:55 AM 21.0 °F 8.6 °F 10.9 °F 65% 30.33 in 10.0 mi SW 12.7 mph - N/A   Clear
1:55 AM 21.9 °F 10.4 °F 10.9 °F 63% 30.30 in 10.0 mi SW 11.5 mph - N/A   Clear
2:55 AM 21.0 °F 8.6 °F 12.0 °F 68% 30.27 in 10.0 mi SW 12.7 mph - N/A   Clear
3:55 AM 21.0 °F 8.6 °F 12.0 °F 68% 30.22 in 10.0 mi SW 12.7 mph - N/A   Clear
4:55 AM 19.9 °F 7.3 °F 12.0 °F 71% 30.17 in 10.0 mi SW 12.7 mph 19.6 mph N/A   Clear
5:55 AM 21.0 °F 9.9 °F 12.0 °F 68% 30.14 in 10.0 mi SW 10.4 mph - N/A   Clear
6:55 AM 21.0 °F 7.6 °F 12.0 °F 68% 30.09 in 10.0 mi SW 15.0 mph 21.9 mph N/A   Partly Cloudy
7:55 AM 24.1 °F 11.0 °F 14.0 °F 65% 30.06 in 10.0 mi SW 16.1 mph 24.2 mph N/A   Partly Cloudy
8:55 AM 26.1 °F 12.0 °F 15.1 °F 63% 29.99 in 10.0 mi SSW 20.7 mph 28.8 mph N/A   Partly Cloudy
9:55 AM 30.0 °F 19.5 °F 18.0 °F 61% 29.95 in 10.0 mi SW 13.8 mph 24.2 mph N/A   Clear
10:55 AM 33.1 °F 21.5 °F 19.9 °F 59% 29.91 in 10.0 mi SW 19.6 mph 28.8 mph N/A   Clear
11:55 AM 39.0 °F 29.9 °F 21.9 °F 50% 29.88 in 10.0 mi SW 17.3 mph 25.3 mph N/A   Clear
12:55 PM 43.0 °F 34.8 °F 24.1 °F 47% 29.83 in 10.0 mi SW 18.4 mph 26.5 mph N/A   Clear
1:55 PM 45.0 °F 37.4 °F 25.0 °F 46% 29.83 in 10.0 mi WSW 18.4 mph 27.6 mph N/A   Clear
2:55 PM 46.0 °F 39.3 °F 26.1 °F 46% 29.80 in 10.0 mi WSW 16.1 mph 25.3 mph N/A   Clear
3:55 PM 45.0 °F 37.6 °F 26.1 °F 48% 29.81 in 10.0 mi WSW 17.3 mph - N/A   Clear
4:55 PM 43.0 °F 35.4 °F 26.1 °F 51% 29.83 in 10.0 mi WSW 16.1 mph - N/A   Clear
5:55 PM 41.0 °F 34.3 °F 27.0 °F 57% 29.85 in 10.0 mi WSW 11.5 mph - N/A   Partly Cloudy
6:55 PM 41.0 °F 33.9 °F 27.0 °F 57% 29.85 in 10.0 mi WSW 12.7 mph - N/A   Clear
7:55 PM 39.9 °F 32.9 °F 28.0 °F 63% 29.84 in 10.0 mi WSW 11.5 mph - N/A   Clear
8:55 PM 39.0 °F 32.3 °F 28.0 °F 65% 29.83 in 10.0 mi West 10.4 mph - N/A   Clear
9:55 PM 37.9 °F 30.9 °F 28.0 °F 68% 29.83 in 10.0 mi West 10.4 mph - N/A   Clear
10:55 PM 37.0 °F 29.3 °F 28.9 °F 73% 29.82 in 10.0 mi West 11.5 mph - N/A   Partly Cloudy
11:55 PM 37.9 °F 31.5 °F 28.9 °F 70% 29.81 in 10.0 mi West 9.2 mph - N/A   Partly Cloudy